Probability
0 0 0 0 0 0 0 0 0 0 0 0 0 0 0 0 0 0 0 0 0 0 0 0 0 0 0 0 0 0 0 0 0 0 0 0 0 0 0 0 0 0 0 0 0 0 0 0 0
0 0 0 0 0 0 0 0 0 0 0 0 0 0 0 0 0 0 0 0 0 0 0 0 0 0 0 0 0 0 0 0 0 0 0 0 0 0 0 0 0 0 0 0 0 0 0 0 0
0 0 0 0 0 0 0 0 0 0 0 0 0 0 0 0 0 0 0 0 0 0 0 0 0 0 0 0 0 0 0 0 0 0 0 0 0 0 0 0 0 0 0 0 0 0 0 0 0
0 0 0 0 0 0 0 0 0 0 0 0 0 0 0 0 0 0 0 0 0 0 0 0 0 0 0 0 0 0 0 0 0 0 0 0 0 0 0 0 0 0 0 0 0 0 0 0 0
0 0 0 0 0 0 0 0 0 0 0 0 0 0 0 0 0 0 0 0 0 0 0 0 0 0 0 0 0 0 0 0 0 0 0 0 0 0 0 0 0 0 0 0 0 0 0 0 0
0 0 0 0 0 0 0 0 0 0 0 0 0 0 0 0 0 0 0 0 0 0 0 0 0 0 0 0 0 0 0 0 0 0 0 0 0 0 0 0 0 0 0 0 0 0 0 0 0
0 0 0 0 0 0 0 0 0 0 0 0 0 0 0 0 0 0 0 0 0 0 0 0 0 0 0 0 0 0 0 0 0 0 0 0 0 0 0 0 0 0 0 0 0 0 0 0 0
0 0 0 0 0 0 0 0 0 0 0 0 0 0 0 0 0 0 0 0 0 0 0 0 0 0 0 0 0 0 0 0 0 0 0 0 0 0 0 0 0 0 0 0 0 0 0 0 0
0 0 0 0 0 0 0 0 0 0 0 0 0 0 0 0 0 0 0 0 0 0 0 0 0 0 0 0 0 0 0 0 0 0 0 0 0 0 0 0 0 0 0 0 0 0 0 0 0
0 0 0 0 0 0 0 0 0 0 0 0 0 0 0 0 0 0 0 0 0 0 0 0 0 0 0 0 0 1 1 0 0 0 0 0 0 0 0 0 0 0 0 0 0 0 0 0 0
0 0 0 0 0 0 0 0 0 0 0 0 0 0 0 0 0 0 0 0 0 0 0 0 0 0 0 0 0 1 1 0 0 0 0 0 0 0 0 0 0 0 0 0 0 0 0 0 0
0 0 0 0 0 0 0 0 0 0 0 0 0 0 0 0 0 0 0 0 0 0 0 0 0 0 0 0 0 1 1 0 0 0 0 0 0 0 0 0 0 0 0 0 0 0 0 0 0
0 0 0 0 0 0 0 0 0 0 0 0 0 0 0 0 0 0 0 0 0 0 0 0 0 0 0 0 0 0 0 0 0 0 0 0 0 0 0 0 0 0 0 0 0 0 0 0 0
0 0 0 0 0 0 0 0 0 0 0 0 0 0 0 0 0 0 0 0 0 0 0 0 0 0 0 0 0 0 0 0 0 0 0 0 0 0 0 0 0 0 0 0 0 0 0 0 0
0 0 0 0 0 0 0 0 0 0 0 0 0 0 0 0 0 0 0 0 0 0 0 0 0 0 0 0 0 0 0 0 0 0 0 0 0 0 0 0 0 0 0 0 0 0 0 0 0
0 0 0 0 0 0 0 0 0 0 0 0 0 0 0 0 0 0 0 0 0 0 0 0 0 0 0 0 0 0 0 0 0 0 0 0 0 0 0 0 0 0 0 0 0 0 0 0 0
0 0 0 0 0 0 0 0 0 0 0 0 0 0 0 0 0 0 0 0 0 0 0 0 0 0 0 0 0 0 0 0 0 0 0 0 0 0 0 0 0 0 0 0 0 0 0 0 0
0 0 0 0 0 0 0 0 0 0 0 0 0 0 0 0 0 0 0 0 0 0 0 0 0 0 0 0 0 0 0 0 0 0 0 0 0 0 0 0 0 0 0 0 0 0 0 0 0
0 0 0 0 0 0 0 0 0 0 0 0 0 0 0 0 0 0 0 0 0 0 0 0 0 0 0 0 0 0 0 0 0 0 0 0 0 0 0 0 0 0 0 0 0 0 0 0 0
0 0 0 0 0 0 0 0 0 0 0 0 0 0 0 0 0 0 0 0 0 0 0 0 0 0 0 0 0 0 0 0 0 0 0 0 0 0 0 0 0 0 0 0 0 0 0 0 0
0 0 0 0 0 0 0 0 0 0 0 0 0 0 0 0 0 0 0 0 0 0 0 0 0 0 0 0 0 0 0 0 0 0 0 0 0 0 0 0 0 0 0 0 0 0 0 0 0
0 0 0 0 0 0 0 0 0 0 0 0 0 0 0 0 0 0 0 0 0 0 0 0 0 0 0 0 0 0 0 0 0 0 0 0 0 0 0 0 0 0 0 0 0 0 0 0 0
0 0 0 0 0 0 0 0 0 0 0 0 0 0 0 0 0 0 0 0 0 0 0 0 0 0 0 0 0 0 0 0 0 0 0 0 0 0 0 0 0 0 0 0 0 0 0 0 0
0 0 0 0 0 0 0 0 0 0 0 0 0 0 0 0 0 0 0 0 0 0 0 0 0 0 0 0 0 0 0 0 0 0 0 0 0 0 0 0 0 0 0 0 0 0 0 0 0
0 0 0 0 0 0 0 0 0 0 0 0 0 0 0 0 0 0 0 0 0 0 0 0 0 0 0 0 0 0 1 1 1 1 0 0 0 0 0 0 0 0 0 0 0 0 0 0 0
0 0 0 0 0 0 0 0 0 0 0 0 0 0 0 0 0 0 0 0 0 0 0 0 0 0 0 0 0 1 2 2 2 1 0 0 0 0 0 0 0 0 0 0 0 0 0 0 0
0 0 0 0 0 0 0 0 0 0 0 0 0 0 0 0 0 0 0 0 0 0 0 0 0 0 0 0 0 1 2 2 1 1 0 0 0 0 0 0 0 0 0 0 0 0 0 0 0
0 0 0 0 0 0 0 0 0 0 0 0 0 0 0 0 0 0 0 0 0 0 0 0 0 0 0 0 0 1 1 1 0 0 0 0 0 0 0 0 0 0 0 0 0 0 0 0 0
0 0 0 0 0 0 0 0 0 0 0 0 0 0 0 0 0 0 0 0 0 0 0 0 0 0 0 0 0 0 0 0 0 0 0 0 0 0 0 0 0 0 0 0 0 0 0 0 0
0 0 0 0 0 0 0 0 0 0 0 0 0 0 0 0 0 0 0 0 0 0 0 0 0 0 0 0 0 0 0 0 0 0 0 0 0 0 0 0 0 0 0 0 0 0 0 0 0
Wind_Speed
8 4 3 3 3 2 2 3 3 4 4 3 3 3 3 1 1 3 5 11 12 14 14 14 12 13 13 13 12 12 12 12 12 12 12 12 12 12 12 12 12 12 12 13 13 13 13 13 13
7 4 3 2 4 4 3 4 5 4 4 5 4 3 3 2 2 5 7 11 13 14 13 13 13 13 14 13 12 12 12 12 11 11 11 12 12 12 12 11 11 11 12 12 12 12 12 12 11
5 3 2 2 3 4 3 4 4 4 5 4 4 2 1 2 4 6 8 13 13 13 12 13 12 13 14 13 12 12 12 11 11 11 11 11 11 11 11 10 10 10 10 11 11 11 11 10 10
3 2 2 4 5 2 2 3 4 8 6 3 4 4 3 2 3 6 11 14 14 13 12 13 12 13 13 12 12 12 11 11 11 10 10 11 11 10 10 9 9 9 9 10 10 10 9 9 9
2 2 3 5 5 3 2 2 6 8 7 5 5 4 5 4 4 8 13 14 13 13 12 14 11 11 12 12 12 11 11 11 10 10 10 10 10 10 9 9 8 8 8 8 9 9 8 8 7
1 2 6 7 7 4 3 4 6 7 6 5 5 4 5 5 7 10 13 13 13 12 12 12 11 10 11 10 10 10 10 10 10 9 9 9 10 9 9 8 8 7 7 7 7 7 7 7 6
2 3 6 8 7 6 4 5 6 7 7 6 5 5 6 7 8 10 12 12 11 12 11 11 12 12 10 9 9 9 9 9 9 9 8 7 7 8 7 6 7 7 6 6 6 6 6 6 5
1 3 7 8 9 7 5 5 3 6 5 2 4 5 5 9 10 11 11 10 10 10 11 11 11 11 11 11 9 9 9 8 8 8 8 7 7 6 6 6 6 6 6 6 5 5 4 4 4
2 5 9 10 9 7 6 6 4 2 4 4 3 1 3 11 13 12 10 10 10 10 10 10 11 11 10 10 10 9 9 8 9 8 8 8 7 7 6 6 5 5 5 5 5 4 4 3 4
5 7 10 7 7 5 6 6 6 6 7 6 5 3 5 12 14 14 14 14 14 13 12 10 11 11 10 8 8 8 8 8 8 7 9 7 6 5 5 5 4 4 4 4 5 4 4 4 3
6 8 7 7 6 5 5 5 5 7 8 9 9 9 10 13 14 15 15 15 15 14 13 11 11 11 10 7 7 5 5 6 7 9 8 6 6 5 5 4 5 6 6 5 5 6 4 4 3
6 7 7 7 5 6 6 5 6 9 7 2 4 7 12 15 16 17 16 15 13 14 14 13 12 11 11 9 7 7 6 5 6 8 9 7 5 5 5 4 5 5 4 5 5 4 5 5 5
11 8 7 7 6 6 6 9 8 11 9 3 3 8 12 15 16 15 14 13 13 14 14 14 13 13 11 10 7 7 7 7 7 7 8 9 6 6 6 5 5 6 5 5 5 5 6 6 6
7 8 8 8 9 7 9 10 9 12 8 7 7 9 11 14 15 14 14 15 15 15 15 14 14 14 12 10 9 8 8 7 8 8 9 10 8 7 6 6 6 6 6 6 6 6 6 6 5
5 8 10 10 10 8 7 14 16 14 9 10 11 10 10 12 13 15 16 15 15 15 14 14 14 14 14 13 12 9 8 8 8 8 10 10 9 9 7 7 6 6 6 7 6 7 6 6 6
6 10 13 11 11 9 11 19 14 11 12 14 13 11 11 12 14 14 14 14 14 14 14 14 12 14 15 13 12 9 9 9 8 8 9 11 11 10 8 7 7 7 6 6 6 6 6 6 7
10 13 15 11 11 11 15 17 11 10 12 14 14 13 12 12 13 14 14 14 14 14 14 14 14 15 14 14 11 10 9 10 9 8 9 10 12 12 10 8 7 7 6 6 6 6 6 7 7
14 14 13 14 8 12 16 18 13 10 12 16 15 15 14 14 15 13 12 12 12 12 13 13 14 14 13 11 9 9 10 9 9 9 10 12 11 12 11 8 9 8 7 7 7 8 7 6 6
13 15 16 11 6 9 17 20 19 15 14 16 17 16 16 16 15 12 11 11 11 12 13 14 14 14 12 10 10 10 10 10 10 10 12 13 12 12 11 9 9 9 8 9 9 8 8 7 5
15 16 16 10 7 8 14 20 20 18 19 18 18 18 17 16 15 12 11 10 11 12 13 13 14 14 14 12 10 9 9 8 9 9 11 13 13 13 11 12 9 9 8 10 10 9 6 6 6
19 19 17 12 6 9 11 18 19 18 18 18 19 18 18 17 16 14 12 11 11 12 13 12 14 14 14 14 10 8 7 7 8 10 10 12 13 13 12 13 11 10 10 9 10 10 11 8 7
19 17 15 14 11 9 9 15 16 16 17 19 18 17 17 16 15 14 13 12 12 12 11 12 12 13 13 13 12 14 11 11 12 9 9 10 12 13 13 13 12 11 10 10 10 10 9 10 8
13 10 13 14 13 13 13 14 16 12 18 18 18 17 17 16 15 15 13 12 11 10 10 10 11 11 12 13 14 14 13 11 9 8 9 10 10 11 12 12 12 11 10 11 11 10 10 9 9
9 6 7 9 9 17 20 18 17 14 18 16 15 15 16 15 14 14 13 11 10 9 8 8 9 10 11 12 13 14 15 13 11 10 9 8 7 8 10 11 11 11 10 11 11 10 11 10 10
12 10 7 10 12 16 13 17 18 12 13 14 14 14 14 14 13 12 12 11 10 9 9 8 9 10 10 11 12 13 15 14 14 11 10 9 7 7 9 9 10 9 10 10 9 9 10 11 11
17 16 12 11 12 11 12 18 15 9 10 11 12 12 11 11 11 10 10 10 9 9 9 9 10 10 10 10 11 11 12 10 9 11 10 9 8 8 8 9 9 9 9 8 9 8 9 9 10
12 15 13 9 7 10 12 15 14 7 9 11 11 10 10 10 9 9 8 8 8 8 8 9 10 9 9 10 10 10 11 10 10 10 10 8 7 6 8 8 9 9 9 9 8 7 8 8 9
13 10 8 10 10 14 14 18 14 10 12 12 12 12 11 10 9 8 7 7 6 6 7 7 8 9 9 9 9 7 9 10 9 9 9 8 8 7 7 7 8 8 8 8 8 7 8 8 8
12 13 10 8 9 11 13 13 7 10 10 11 11 10 9 9 8 7 6 5 5 4 4 5 6 7 7 7 8 8 8 8 8 8 8 7 7 7 7 7 7 7 7 7 7 7 7 8 8
12 14 15 12 11 11 13 13 4 6 5 7 7 6 6 6 6 5 5 5 4 4 4 4 4 5 5 6 6 7 7 7 7 7 7 6 7 6 6 6 6 6 6 6 7 7 7 8 8
Wind_Direction
325 320 265 240 221 202 179 154 167 156 160 138 152 187 205 209 301 57 100 150 144 147 149 151 148 146 143 141 138 136 134 132 128 125 123 120 118 116 112 110 108 106 103 101 98 95 92 91 88
326 307 254 245 240 215 177 173 184 168 127 133 153 179 189 155 59 102 140 152 151 149 153 153 146 148 146 145 143 141 138 135 132 129 128 125 122 121 118 115 113 110 108 106 103 99 96 93 90
319 297 282 228 230 235 170 166 173 135 145 171 162 187 228 107 130 142 146 154 153 153 155 147 150 151 150 149 147 144 141 138 135 133 133 131 128 125 123 120 116 114 113 112 108 105 100 96 93
300 251 235 227 209 219 196 159 162 155 164 189 184 163 144 70 135 141 146 157 155 155 156 151 156 154 154 153 151 148 146 144 141 140 138 136 133 131 129 128 122 118 116 117 112 109 105 101 98
291 262 216 213 215 200 206 193 181 182 178 178 197 174 141 122 130 143 155 161 159 158 160 157 158 156 156 157 155 153 151 149 147 146 144 141 138 138 138 137 130 125 121 119 117 113 110 106 103
261 236 222 218 208 201 197 186 187 199 187 179 196 180 135 132 152 155 160 165 163 161 162 161 158 159 159 160 159 157 155 154 152 150 150 148 146 145 145 143 140 135 132 129 125 121 118 114 107
245 230 232 224 213 210 196 180 201 197 196 190 194 182 145 161 160 159 164 166 166 166 167 169 169 168 164 163 162 160 157 155 155 153 150 147 148 149 148 147 150 148 145 143 138 134 129 124 115
265 221 219 218 216 215 186 180 210 213 200 151 199 206 158 160 154 158 163 168 171 174 177 176 176 176 176 174 166 163 159 158 157 152 146 144 146 151 149 161 156 160 160 155 151 145 144 133 126
219 224 221 214 216 211 184 190 180 204 171 171 205 307 63 137 151 158 164 175 179 184 186 184 183 183 182 180 171 172 165 163 163 161 154 164 179 178 176 177 162 168 169 169 166 160 155 149 144
204 224 227 224 227 219 193 205 184 185 194 196 195 171 141 153 165 174 181 184 188 191 191 190 191 188 186 182 180 186 184 181 188 184 179 189 190 189 191 162 172 176 173 180 183 177 181 213 203
207 226 227 223 226 231 213 214 199 210 213 214 208 182 164 172 180 189 194 195 195 194 193 195 195 193 191 187 188 188 190 191 196 194 192 193 194 191 198 189 186 199 201 207 195 205 219 226 238
220 225 225 220 213 223 227 220 214 224 231 232 225 174 173 183 192 198 200 200 198 198 199 198 196 197 197 196 194 194 195 196 198 197 198 196 198 203 203 206 205 207 211 217 220 223 226 232 236
226 225 223 229 222 231 235 234 240 239 239 233 199 182 193 197 202 205 206 205 204 205 204 201 199 200 199 200 200 200 202 203 203 202 202 205 205 207 209 212 213 216 217 219 225 231 232 236 240
233 230 230 229 225 225 233 243 240 244 232 225 215 209 208 209 208 207 208 210 209 210 209 205 203 203 202 203 204 204 205 206 209 207 207 207 211 210 211 214 218 221 221 224 229 237 241 244 246
235 236 237 231 226 224 229 245 234 239 227 230 229 224 220 220 216 215 214 214 213 213 212 209 207 206 207 209 210 209 207 206 209 210 210 209 213 214 214 217 218 222 223 225 230 237 241 246 248
215 227 233 221 217 213 216 246 236 228 224 233 235 233 230 228 225 225 222 220 218 215 214 212 207 209 209 210 211 211 212 211 213 213 211 212 214 216 216 218 221 219 218 219 223 229 235 241 247
212 226 231 226 212 209 218 247 242 224 225 235 238 238 237 236 233 229 226 223 220 218 215 214 210 211 211 211 213 214 215 216 216 215 216 214 213 214 216 220 221 215 216 219 221 227 233 244 249
211 222 231 231 211 215 227 241 242 231 234 240 242 241 240 240 239 234 228 225 222 220 217 216 214 214 212 210 212 215 219 220 219 218 219 217 215 213 216 220 220 214 216 220 220 226 230 243 255
232 231 237 238 226 229 238 247 248 244 241 244 244 243 242 243 244 239 233 226 222 219 217 215 214 212 207 205 206 210 216 217 218 220 220 220 219 214 214 218 219 215 218 222 222 224 230 233 234
229 235 240 245 231 244 256 257 255 248 244 244 245 244 243 244 243 239 235 227 222 220 218 216 215 212 208 208 207 210 213 217 220 221 221 220 219 217 214 217 219 216 220 224 223 219 226 227 210
228 232 234 236 244 243 268 264 249 245 242 243 243 245 245 243 244 241 234 230 225 223 220 217 216 214 211 209 206 204 211 217 215 218 219 218 217 216 217 219 220 220 219 224 223 219 224 230 220
233 230 235 237 241 247 238 267 251 240 240 238 237 237 240 241 242 242 239 233 228 227 224 221 218 216 213 207 206 205 207 214 218 216 216 216 215 217 219 221 222 223 223 226 225 221 224 229 230
231 220 223 231 239 251 238 255 261 235 239 236 233 233 235 237 238 238 238 237 234 230 226 222 219 217 214 208 208 209 217 223 224 218 218 217 214 215 219 221 222 224 225 227 226 222 222 225 230
212 204 224 230 235 245 234 237 260 231 236 237 232 230 232 234 234 236 239 239 239 233 225 223 220 219 215 210 210 212 217 221 221 219 217 216 214 214 218 221 223 225 226 227 227 226 225 226 231
201 194 207 214 220 239 225 229 250 239 232 233 233 232 233 233 233 234 235 236 238 235 228 221 220 221 216 213 213 214 217 219 221 221 219 217 215 215 217 216 220 224 227 228 228 228 229 229 231
205 208 216 225 231 237 217 233 248 238 231 231 236 240 240 238 235 236 239 240 239 237 232 226 222 223 218 214 214 216 218 219 222 222 220 218 219 219 218 214 218 222 225 228 229 230 231 232 233
206 218 230 249 260 258 239 246 257 239 230 228 231 233 236 238 237 238 240 244 246 241 236 231 226 225 222 218 215 216 215 216 218 219 220 220 221 221 217 213 215 220 222 224 223 226 230 232 234
217 207 203 217 232 241 245 244 245 223 222 223 226 231 237 241 242 242 246 249 249 247 241 234 230 228 225 221 217 216 216 215 215 216 216 217 218 216 215 216 216 218 221 222 222 226 230 231 233
204 210 216 220 225 237 248 246 240 234 226 224 231 237 240 243 244 248 249 250 253 253 249 238 230 227 225 221 217 214 215 214 213 215 216 216 217 216 214 214 215 216 218 219 221 225 229 232 237
225 219 215 221 228 234 249 253 208 227 238 237 240 248 254 257 262 265 263 260 254 249 243 237 233 226 224 219 214 212 211 208 208 211 213 212 215 215 214 213 213 215 218 219 221 226 229 233 237